Find OneWeb SL0602

NORAD ID: 54666 Int'l Des: 2022-166 Owner: ONEWEBN Country: UK Constellation: oneweb operational
LEOCIRCULARPOLARONEWEB_TYPE

Live Position

Loading 3D Globe...

About OneWeb SL0602

Description loading...

Upcoming Passes

Passes for default location (London). Set your location on the main map for personalized predictions.

Altitude History

Loading altitude history...

Two-Line Element Set

1 54666U 22166AA 26105.92812697 .00000014 00000-0 16747-5 0 9997
2 54666 87.9195 256.4025 0002104 99.7533 260.3839 13.21825474163328
Epoch: Apr 15, 2026 • Age: 12 hours

Current Status

Altitude 1206.8 km
Velocity 7.25 km/s
Sub-Earth Point -75.79°S, 115.63°W
Launch Date Dec 8, 2022
Age 3.3 years
Type internet

Technical Details

Classification Payload
Mass 148.00 kg
Dry Mass 140.00 kg
Total Mass 148.00 kg
Length 1.30 m
Diameter 1.00 m
Span 5.00 m
Shape Trapezoid+2 pan
Manufacturer ONEWUS
Bus Type ARROW
Phase Status In Orbit
Owner/State ONEWEBN/UK

Most Searched